Time,TemperatureF,DewpointF,PressureIn,WindDirection,WindDirectionDegrees,WindSpeedMPH,WindSpeedGustMPH,Humidity,HourlyPrecipIn,Conditions,Clouds,dailyrainin,SolarRadiationWatts/m^2,SoftwareType,DateUTC
2013-02-25 00:07:00,32.1,29.0,30.17,WSW,238,0.0,1.0,88,0.00,,,0.00,0,weatherlink.com 1.10,2013-02-25 05:07:00,
2013-02-25 00:22:00,32.1,29.0,30.17,WSW,238,0.0,2.0,88,0.00,,,0.00,0,weatherlink.com 1.10,2013-02-25 05:22:00,
2013-02-25 00:37:00,32.0,29.0,30.17,WSW,238,0.0,0.0,87,0.00,,,0.00,0,weatherlink.com 1.10,2013-02-25 05:37:00,
2013-02-25 00:52:00,32.2,29.0,30.16,WSW,238,0.0,1.0,87,0.00,,,0.00,0,weatherlink.com 1.10,2013-02-25 05:52:00,
2013-02-25 01:07:00,32.3,29.0,30.17,WSW,238,2.0,3.0,86,0.00,,,0.00,0,weatherlink.com 1.10,2013-02-25 06:07:00,
2013-02-25 01:22:00,32.3,29.0,30.18,WSW,239,2.0,5.0,86,0.00,,,0.00,0,weatherlink.com 1.10,2013-02-25 06:22:00,
2013-02-25 01:37:00,32.2,29.0,30.18,SW,217,5.0,5.0,87,0.00,,,0.00,0,weatherlink.com 1.10,2013-02-25 06:37:00,
2013-02-25 01:52:00,32.4,29.0,30.19,WSW,255,2.0,5.0,88,0.00,,,0.00,0,weatherlink.com 1.10,2013-02-25 06:52:00,
2013-02-25 02:07:00,32.5,29.0,30.19,WSW,237,3.0,5.0,87,0.00,,,0.00,0,weatherlink.com 1.10,2013-02-25 07:07:00,
2013-02-25 02:23:00,32.3,29.0,30.19,SW,225,1.0,3.0,86,0.00,,,0.00,0,weatherlink.com 1.10,2013-02-25 07:23:00,
2013-02-25 02:38:00,32.2,28.0,30.19,SW,230,1.0,3.0,85,0.00,,,0.00,0,weatherlink.com 1.10,2013-02-25 07:38:00,
2013-02-25 02:53:00,32.2,28.0,30.20,SW,229,2.0,3.0,85,0.00,,,0.00,0,weatherlink.com 1.10,2013-02-25 07:53:00,
2013-02-25 03:08:00,32.1,28.0,30.19,SW,234,0.0,2.0,85,0.00,,,0.00,0,weatherlink.com 1.10,2013-02-25 08:08:00,
2013-02-25 03:23:00,32.1,28.0,30.19,SW,215,1.0,3.0,84,0.00,,,0.00,0,weatherlink.com 1.10,2013-02-25 08:23:00,
2013-02-25 03:38:00,32.0,28.0,30.19,SSW,203,0.0,3.0,84,0.00,,,0.00,0,weatherlink.com 1.10,2013-02-25 08:38:00,
2013-02-25 03:53:00,31.9,28.0,30.19,SSW,212,1.0,3.0,84,0.00,,,0.00,0,weatherlink.com 1.10,2013-02-25 08:53:00,
2013-02-25 04:08:00,31.9,27.0,30.19,SW,215,0.0,3.0,83,0.00,,,0.00,0,weatherlink.com 1.10,2013-02-25 09:08:00,
2013-02-25 04:23:00,31.7,27.0,30.19,SSW,193,0.0,3.0,82,0.00,,,0.00,0,weatherlink.com 1.10,2013-02-25 09:23:00,
2013-02-25 04:38:00,31.5,27.0,30.19,SW,225,2.0,6.0,82,0.00,,,0.00,0,weatherlink.com 1.10,2013-02-25 09:38:00,
2013-02-25 04:53:00,31.1,27.0,30.20,SW,234,1.0,5.0,83,0.00,,,0.00,0,weatherlink.com 1.10,2013-02-25 09:53:00,
2013-02-25 05:08:00,30.8,26.0,30.19,WSW,254,4.0,5.0,83,0.00,,,0.00,0,weatherlink.com 1.10,2013-02-25 10:08:00,
2013-02-25 05:23:00,30.8,26.0,30.19,WSW,252,1.0,4.0,82,0.00,,,0.00,0,weatherlink.com 1.10,2013-02-25 10:23:00,
2013-02-25 05:38:00,30.9,26.0,30.19,WSW,252,0.0,3.0,82,0.00,,,0.00,0,weatherlink.com 1.10,2013-02-25 10:38:00,
2013-02-25 05:53:00,31.0,26.0,30.20,SSW,211,0.0,3.0,81,0.00,,,0.00,0,weatherlink.com 1.10,2013-02-25 10:53:00,
2013-02-25 06:08:00,30.6,25.0,30.20,South,173,2.0,4.0,81,0.00,,,0.00,0,weatherlink.com 1.10,2013-02-25 11:08:00,
2013-02-25 06:23:00,30.6,25.0,30.20,SSW,209,1.0,3.0,81,0.00,,,0.00,0,weatherlink.com 1.10,2013-02-25 11:23:00,
2013-02-25 06:38:00,29.4,26.0,30.20,ENE,65,2.0,7.0,86,0.00,,,0.00,0,weatherlink.com 1.10,2013-02-25 11:38:00,
2013-02-25 06:53:00,28.3,25.0,30.20,ENE,71,1.0,3.0,88,0.00,,,0.00,0,weatherlink.com 1.10,2013-02-25 11:53:00,
2013-02-25 07:08:00,27.8,25.0,30.20,ENE,71,1.0,3.0,89,0.00,,,0.00,0,weatherlink.com 1.10,2013-02-25 12:08:00,
2013-02-25 07:23:00,27.1,25.0,30.20,ENE,71,1.0,3.0,90,0.00,,,0.00,0,weatherlink.com 1.10,2013-02-25 12:23:00,
2013-02-25 07:38:00,26.5,24.0,30.20,ENE,71,2.0,3.0,90,0.00,,,0.00,11,weatherlink.com 1.10,2013-02-25 12:38:00,
2013-02-25 07:53:00,26.0,24.0,30.21,ENE,71,2.0,3.0,91,0.00,,,0.00,25,weatherlink.com 1.10,2013-02-25 12:53:00,
2013-02-25 08:08:00,26.0,24.0,30.21,ENE,71,1.0,3.0,92,0.00,,,0.00,47,weatherlink.com 1.10,2013-02-25 13:08:00,
2013-02-25 08:23:00,26.3,24.0,30.22,ENE,71,2.0,3.0,91,0.00,,,0.00,62,weatherlink.com 1.10,2013-02-25 13:23:00,
2013-02-25 08:38:00,26.4,24.0,30.22,ENE,74,2.0,3.0,90,0.00,,,0.00,56,weatherlink.com 1.10,2013-02-25 13:38:00,
2013-02-25 08:53:00,27.2,24.0,30.23,East,100,0.0,4.0,89,0.00,,,0.00,123,weatherlink.com 1.10,2013-02-25 13:53:00,
2013-02-25 09:23:00,31.9,26.0,30.22,WSW,248,3.0,5.0,79,0.00,,,0.00,58,weatherlink.com 1.10,2013-02-25 14:23:00,
2013-02-25 09:38:00,32.3,26.0,30.22,SSW,203,0.0,5.0,78,0.00,,,0.00,62,weatherlink.com 1.10,2013-02-25 14:38:00,
2013-02-25 09:53:00,32.7,26.0,30.22,South,177,1.0,4.0,77,0.00,,,0.00,130,weatherlink.com 1.10,2013-02-25 14:53:00,
2013-02-25 10:08:00,33.2,26.0,30.22,South,175,0.0,2.0,76,0.00,,,0.00,236,weatherlink.com 1.10,2013-02-25 15:08:00,
2013-02-25 10:23:00,34.1,28.0,30.21,SW,225,3.0,5.0,77,0.00,,,0.00,309,weatherlink.com 1.10,2013-02-25 15:23:00,
2013-02-25 10:38:00,34.4,27.0,30.21,WSW,246,2.0,6.0,75,0.00,,,0.00,237,weatherlink.com 1.10,2013-02-25 15:38:00,
2013-02-25 10:53:00,34.1,28.0,30.22,West,261,3.0,6.0,77,0.00,,,0.00,316,weatherlink.com 1.10,2013-02-25 15:53:00,
2013-02-25 11:08:00,34.1,28.0,30.22,West,259,4.0,5.0,78,0.00,,,0.00,251,weatherlink.com 1.10,2013-02-25 16:08:00,
2013-02-25 11:23:00,33.7,28.0,30.22,SW,221,4.0,5.0,78,0.00,,,0.00,257,weatherlink.com 1.10,2013-02-25 16:23:00,
2013-02-25 11:38:00,34.5,28.0,30.22,West,260,5.0,6.0,77,0.00,,,0.00,427,weatherlink.com 1.10,2013-02-25 16:38:00,
2013-02-25 11:54:00,34.8,28.0,30.23,SW,234,2.0,6.0,76,0.00,,,0.00,287,weatherlink.com 1.10,2013-02-25 16:54:00,
2013-02-25 12:09:00,34.5,28.0,30.22,WSW,248,3.0,5.0,76,0.00,,,0.00,290,weatherlink.com 1.10,2013-02-25 17:09:00,
2013-02-25 12:24:00,35.7,27.0,30.22,WSW,256,4.0,7.0,72,0.00,,,0.00,408,weatherlink.com 1.10,2013-02-25 17:24:00,
2013-02-25 12:39:00,35.8,28.0,30.21,WSW,252,5.0,6.0,72,0.00,,,0.00,271,weatherlink.com 1.10,2013-02-25 17:39:00,
2013-02-25 12:54:00,35.2,27.0,30.21,WSW,246,2.0,6.0,73,0.00,,,0.00,137,weatherlink.com 1.10,2013-02-25 17:54:00,
2013-02-25 13:09:00,35.0,28.0,30.20,West,263,2.0,6.0,76,0.00,,,0.00,127,weatherlink.com 1.10,2013-02-25 18:09:00,
2013-02-25 13:24:00,35.3,30.0,30.20,West,274,2.0,3.0,81,0.00,,,0.00,225,weatherlink.com 1.10,2013-02-25 18:24:00,
2013-02-25 13:39:00,35.7,29.0,30.20,West,274,2.0,3.0,78,0.00,,,0.00,308,weatherlink.com 1.10,2013-02-25 18:39:00,
2013-02-25 13:54:00,36.0,28.0,30.20,West,274,1.0,2.0,74,0.00,,,0.00,257,weatherlink.com 1.10,2013-02-25 18:54:00,
2013-02-25 14:09:00,36.1,30.0,30.20,West,275,4.0,4.0,78,0.00,,,0.00,255,weatherlink.com 1.10,2013-02-25 19:09:00,
2013-02-25 14:24:00,35.6,30.0,30.20,WNW,288,3.0,5.0,79,0.00,,,0.00,237,weatherlink.com 1.10,2013-02-25 19:24:00,
2013-02-25 14:39:00,35.6,30.0,30.19,WNW,288,3.0,3.0,79,0.00,,,0.00,220,weatherlink.com 1.10,2013-02-25 19:39:00,
2013-02-25 14:54:00,35.6,30.0,30.19,WNW,288,1.0,3.0,80,0.00,,,0.00,211,weatherlink.com 1.10,2013-02-25 19:54:00,
2013-02-25 15:09:00,35.5,30.0,30.19,WNW,288,0.0,2.0,79,0.00,,,0.00,200,weatherlink.com 1.10,2013-02-25 20:09:00,
2013-02-25 15:24:00,35.7,30.0,30.19,WNW,288,1.0,1.0,79,0.00,,,0.00,165,weatherlink.com 1.10,2013-02-25 20:24:00,
2013-02-25 15:39:00,35.4,30.0,30.18,WNW,288,3.0,3.0,80,0.00,,,0.00,153,weatherlink.com 1.10,2013-02-25 20:39:00,
2013-02-25 15:54:00,34.8,30.0,30.18,WNW,288,2.0,3.0,84,0.00,,,0.00,111,weatherlink.com 1.10,2013-02-25 20:54:00,
2013-02-25 16:09:00,34.5,31.0,30.18,WNW,288,3.0,3.0,85,0.00,,,0.00,90,weatherlink.com 1.10,2013-02-25 21:09:00,
2013-02-25 16:24:00,34.7,30.0,30.18,WNW,288,0.0,1.0,84,0.00,,,0.00,79,weatherlink.com 1.10,2013-02-25 21:24:00,
2013-02-25 16:39:00,34.6,31.0,30.18,WNW,288,0.0,2.0,85,0.00,,,0.00,40,weatherlink.com 1.10,2013-02-25 21:39:00,
2013-02-25 16:54:00,34.6,31.0,30.18,WNW,288,0.0,0.0,85,0.00,,,0.00,35,weatherlink.com 1.10,2013-02-25 21:54:00,
2013-02-25 17:09:00,34.6,31.0,30.18,WNW,288,0.0,0.0,85,0.00,,,0.00,32,weatherlink.com 1.10,2013-02-25 22:09:00,
2013-02-25 17:24:00,34.7,30.0,30.18,WNW,288,0.0,0.0,84,0.00,,,0.00,18,weatherlink.com 1.10,2013-02-25 22:24:00,
2013-02-25 17:39:00,34.6,30.0,30.18,WNW,288,0.0,0.0,84,0.00,,,0.00,16,weatherlink.com 1.10,2013-02-25 22:39:00,
2013-02-25 17:54:00,34.5,30.0,30.18,WNW,288,0.0,0.0,84,0.00,,,0.00,11,weatherlink.com 1.10,2013-02-25 22:54:00,
2013-02-25 18:09:00,34.3,30.0,30.18,WNW,288,0.0,0.0,85,0.00,,,0.00,5,weatherlink.com 1.10,2013-02-25 23:09:00,
2013-02-25 18:24:00,34.1,30.0,30.18,WNW,288,0.0,0.0,85,0.00,,,0.00,0,weatherlink.com 1.10,2013-02-25 23:24:00,
2013-02-25 18:39:00,34.0,30.0,30.19,WNW,288,0.0,0.0,85,0.00,,,0.00,0,weatherlink.com 1.10,2013-02-25 23:39:00,
2013-02-25 18:54:00,33.7,30.0,30.19,WNW,288,0.0,0.0,86,0.00,,,0.00,0,weatherlink.com 1.10,2013-02-25 23:54:00,
2013-02-25 19:09:00,33.7,30.0,30.19,WNW,288,0.0,2.0,86,0.00,,,0.00,0,weatherlink.com 1.10,2013-02-26 00:09:00,
2013-02-25 19:24:00,33.7,30.0,30.20,WNW,288,0.0,0.0,86,0.00,,,0.00,0,weatherlink.com 1.10,2013-02-26 00:24:00,
2013-02-25 19:39:00,33.7,30.0,30.19,WNW,288,0.0,1.0,86,0.00,,,0.00,0,weatherlink.com 1.10,2013-02-26 00:39:00,
2013-02-25 19:54:00,33.5,30.0,30.19,WNW,288,1.0,1.0,87,0.00,,,0.00,0,weatherlink.com 1.10,2013-02-26 00:54:00,
2013-02-25 20:09:00,33.5,29.0,30.19,WNW,288,1.0,2.0,82,0.00,,,0.00,0,weatherlink.com 1.10,2013-02-26 01:09:00,
2013-02-25 20:24:00,34.0,28.0,30.18,WNW,288,1.0,3.0,80,0.00,,,0.00,0,weatherlink.com 1.10,2013-02-26 01:24:00,
2013-02-25 20:39:00,34.0,28.0,30.18,WNW,288,0.0,1.0,79,0.00,,,0.00,0,weatherlink.com 1.10,2013-02-26 01:39:00,
2013-02-25 20:54:00,34.1,29.0,30.18,WNW,288,1.0,2.0,80,0.00,,,0.00,0,weatherlink.com 1.10,2013-02-26 01:54:00,
2013-02-25 21:09:00,34.1,28.0,30.18,WNW,288,0.0,2.0,79,0.00,,,0.00,0,weatherlink.com 1.10,2013-02-26 02:09:00,
2013-02-25 21:24:00,34.0,28.0,30.18,WNW,288,1.0,2.0,79,0.00,,,0.00,0,weatherlink.com 1.10,2013-02-26 02:24:00,
2013-02-25 21:39:00,34.1,28.0,30.18,WNW,288,2.0,3.0,78,0.00,,,0.00,0,weatherlink.com 1.10,2013-02-26 02:39:00,
2013-02-25 21:54:00,34.3,28.0,30.17,WNW,288,1.0,3.0,77,0.00,,,0.00,0,weatherlink.com 1.10,2013-02-26 02:54:00,
2013-02-25 22:09:00,34.3,28.0,30.17,WNW,288,0.0,2.0,77,0.00,,,0.00,0,weatherlink.com 1.10,2013-02-26 03:09:00,
2013-02-25 22:24:00,34.2,28.0,30.17,WNW,287,1.0,2.0,77,0.00,,,0.00,0,weatherlink.com 1.10,2013-02-26 03:24:00,
2013-02-25 22:39:00,34.2,28.0,30.16,WNW,287,0.0,2.0,77,0.00,,,0.00,0,weatherlink.com 1.10,2013-02-26 03:39:00,
2013-02-25 22:54:00,33.9,28.0,30.15,ESE,106,1.0,3.0,78,0.00,,,0.00,0,weatherlink.com 1.10,2013-02-26 03:54:00,
2013-02-25 23:09:00,33.7,28.0,30.16,ESE,108,1.0,3.0,79,0.00,,,0.00,0,weatherlink.com 1.10,2013-02-26 04:09:00,
2013-02-25 23:24:00,33.7,28.0,30.16,ESE,105,1.0,3.0,79,0.00,,,0.00,0,weatherlink.com 1.10,2013-02-26 04:24:00,
2013-02-25 23:39:00,33.8,28.0,30.16,East,100,0.0,3.0,79,0.00,,,0.00,0,weatherlink.com 1.10,2013-02-26 04:39:00,
2013-02-25 23:54:00,33.9,28.0,30.16,ESE,102,0.0,3.0,79,0.00,,,0.00,0,weatherlink.com 1.10,2013-02-26 04:54:00,